Terminal Aerodrome Forecast
Issued by NWS Memphis, TN

Home | Current Version | Previous Version | Text Only | Print | Product List | Glossary On
Versions: 1 2 3 4 5 6 7 8 9 10 11 12 13 14 15 16 17 18 19 20 21 22 23 24 25 26 27 28 29 30 31 32 33
244
FTUS44 KMEG 071737
TAFMEM
TAF
KMEM 071737Z 0718/0818 04006KT P6SM BKN025
     FM072000 03006KT P6SM SCT025 BKN250
     FM080600 01009KT P6SM BKN060
     FM081500 35011KT P6SM SKC=

USA.gov is the U.S. government's official web portal to all federal, state and local government web resources and services.